This is the latest recevied weather packets stored in our database for station/object AA4XD. If no packets are shown the sender has not sent any weather packets the latest 10 day(s).
| Time | Temp. | Humidity | Pressure | Rain* | Wind** | Luminosity | Snow |
|---|---|---|---|---|---|---|---|
| 1777812306 | 13.89° C | 99% | 1017.8 hPa | 0 mm | - | 148 W/m² | - |
| 1777812004 | 13.89° C | 99% | 1017.8 hPa | 0 mm | - | 198 W/m² | - |
| 1777811703 | 13.33° C | 99% | 1017.6 hPa | 0 mm | - | 170 W/m² | - |
| 1777811397 | 13.33° C | 99% | 1017.8 hPa | 0 mm | - | 148 W/m² | - |
| 1777811095 | 13.33° C | 99% | 1017.7 hPa | 0 mm | - | 112 W/m² | - |
| 1777810792 | 13.33° C | 99% | 1017.8 hPa | 0 mm | - | 98 W/m² | - |
| 1777810489 | 13.33° C | 99% | 1017.6 hPa | 0 mm | - | 103 W/m² | - |
| 1777810185 | 13.33° C | 99% | 1017.6 hPa | 0 mm | - | 82 W/m² | - |
| 1777809882 | 13.33° C | 99% | 1017.7 hPa | 0 mm | - | 65 W/m² | - |
| 1777809580 | 13.33° C | 99% | 1017.3 hPa | 0 mm | - | 79 W/m² | - |
| 1777809277 | 13.33° C | 99% | 1017.4 hPa | 0 mm | - | 67 W/m² | - |
| 1777808975 | 13.33° C | 99% | 1017.2 hPa | 0 mm | - | 61 W/m² | - |
| 1777808672 | 12.78° C | 99% | 1017.2 hPa | 0 mm | - | 72 W/m² | - |
| 1777808368 | 12.78° C | 99% | 1017.3 hPa | 0 mm | - | 46 W/m² | - |
| 1777808067 | 12.78° C | 99% | 1017.4 hPa | 0 mm | - | 42 W/m² | - |
| 1777807764 | 12.78° C | 98% | 1017.5 hPa | 0 mm | - | 39 W/m² | - |
| 1777807462 | 12.78° C | 99% | 1017.5 hPa | 0 mm | - | 30 W/m² | - |
| 1777807163 | 12.78° C | 98% | 1017.1 hPa | 0 mm | - | 25 W/m² | - |
| 1777806861 | 12.78° C | 98% | 1017.2 hPa | 0 mm | - | 19 W/m² | - |
| 1777806557 | 12.78° C | 98% | 1016.9 hPa | 0 mm | - | 16 W/m² | - |
| 1777806253 | 12.78° C | 98% | 1016.9 hPa | 0 mm | - | 13 W/m² | - |
| 1777805949 | 12.78° C | 98% | 1016.8 hPa | 0 mm | - | 10 W/m² | - |
| 1777805646 | 12.78° C | 98% | 1016.8 hPa | 0 mm | - | 7 W/m² | - |
| 1777805344 | 13.33° C | 98% | 1016.8 hPa | 0 mm | - | 4 W/m² | - |
| 1777805042 | 13.33° C | 98% | 1016.7 hPa | 0 mm | - | 2 W/m² | - |
* Rain latest hour (hover to see other rain measurements)
** Current wind speed in m/s (hover to see current wind gust speed)